Location: Garca
(49.9500°N, 19.4667°E)
Time: 14:53:52
(UTC+00:00)

Daily predictions for brighter satellites

Satellite Brightness Start Highest point End
(mag) Time Altitude Azimuth Time Altitude Azimuth Time Altitude Azimuth
Cosmos 1328 4.2 18:00:47 10° NNW 18:04:49 68° W 18:08:47 10° S
Resurs 1-3 4.4 18:01:30 10° SE 18:05:27 34° ENE 18:09:26 10° N
COSMOS 2428 3.9 18:00:42 10° NNW 18:05:39 29° NE 18:10:35 10° ESE
USA 238 DEB 4.2 17:58:36 10° NW 18:05:48 71° SW 18:13:17 10° SSE
Cosmos 1110 Rocket 4.1 18:00:38 10° NNW 18:05:51 83° WSW 18:11:01 10° SSE
USA 238 4.2 17:58:42 10° NW 18:05:54 72° SW 18:13:24 10° SSE
CZ-4C R/B 2.3 18:04:45 10° SSW 18:09:25 45° ESE 18:15:01 10° NE
OBJECT-B 1.0 18:06:46 10° SSE 18:09:53 51° ENE 18:13:03 10° N
Cosmos 1825 4.0 18:09:06 10° NNE 18:11:32 16° ENE 18:13:58 10° ESE
SAR-Lupe-1 4.2 18:07:59 10° NNE 18:11:36 83° WNW 18:15:11 10° SSW
Cosmos 1825 Rocket 3.8 18:07:38 10° N 18:11:55 51° ENE 18:16:12 10° SSE
Cosmos 1953 4.2 18:08:13 10° SW 18:11:59 37° WNW 18:15:46 10° N
Cosmos 1331 Rocket 4.2 18:08:36 10° NNW 18:13:48 80° WSW 18:19:00 10° SSE
Cosmos 1300 2.6 18:12:27 10° S 18:16:15 70° E 18:20:03 10° NNE
CZ-4 R/B 4.1 18:14:03 10° SSW 18:17:26 23° W 18:20:50 10° NW
Lacrosse 5 rocket 1.4 18:13:42 10° SW 18:17:39 56° SE 18:21:50 10° ENE
Cosmos 2360 Rocket 2.2 18:11:58 10° NNW 18:17:40 75° ENE 18:23:19 10° SE
Cosmos 1758 Rocket 3.6 18:14:10 10° N 18:18:38 83° E 18:23:06 10° S
CSL-04 Rocket 4.4 18:14:46 10° S 18:19:57 54° W 18:25:09 10° NNW
Helios 1A Rocket 4.0 18:17:15 10° S 18:21:11 48° W 18:25:11 10° NNW
Cosmos 1602 Rocket 4.4 18:18:09 10° NNW 18:22:24 54° W 18:26:39 10° S
MetOp-A 4.3 18:18:35 10° S 18:23:56 78° WSW 18:29:20 10° NNW
CENTAUR R/B 3.6 18:16:23 10° NW 18:24:22 68° SW 18:33:09 10° SSE
ATLAS 3B R/B 3.4 18:20:16 10° NW 18:26:54 46° NNE 18:33:35 11° ESE
CZ-2C R/B 3.4 18:22:41 10° N 18:27:45 56° WNW 18:32:49 10° SSW
Cosmos 2237 4.4 18:22:37 10° NNW 18:28:21 79° WSW 18:34:01 10° SSE
USA 215 3.3 18:22:13 10° ESE 18:28:47 84° NNE 18:35:22 10° WNW
SL-16 R/B 3.2 18:23:27 10° NW 18:28:52 47° WSW 18:34:15 10° S
SME Rocket 3.1 18:26:24 10° NNE 18:30:09 79° WNW 18:34:24 10° SSW
SJ-6B 2.7 18:26:47 10° SSE 18:30:29 82° WSW 18:34:15 10° NNW
Cosmos 482 Debris 4.3 18:33:33 10° SSW 18:35:36 20° SSE 18:36:08 18° SE
COSMOS 2487 3.8 18:34:56 12° SE 18:37:03 19° E 18:39:35 10° NE
Cosmos 2219 Rocket 2.7 18:31:37 10° NNW 18:37:08 47° NE 18:41:49 14° SE
Terra 3.9 18:37:22 10° ENE 18:39:03 12° NE 18:40:44 10° NNE
ARIANE 5 R/B 4.2 18:37:03 12° E 18:39:41 20° ENE 18:42:53 10° NNE
Cosmos 2058 3.8 18:37:39 10° N 18:41:28 32° ENE 18:44:15 16° SE
BREEZE-M DEB (TANK) 3.8 18:43:12 10° SSW 18:45:43 15° SSE 18:46:07 14° SSE
SPOT 1/Viking Rocket 4.4 18:42:10 14° ESE 18:45:57 33° ENE 18:50:36 10° N
SPOT 3 Rocket 3.7 18:46:12 12° SE 18:50:54 58° ENE 18:56:01 10° N
Cosmos 1408 2.5 18:47:32 10° N 18:51:05 62° ENE 18:53:52 15° SSE
Cosmos 405 Rocket 4.1 18:48:29 10° N 18:51:52 25° ENE 18:53:39 18° ESE
Cosmos 1455 2.7 18:49:39 13° SSE 18:52:37 36° E 18:56:05 10° NNE
Cosmos 1606 Rocket 3.5 18:48:34 10° S 18:52:58 88° ESE 18:57:21 10° N
RESURS DK-1 4.1 18:54:27 15° E 18:54:27 15° E 18:56:16 10° ENE
Spot 2 Rocket 4.5 18:50:57 17° ESE 18:54:07 31° ENE 18:58:33 10° N
BREEZE-M DEB (TANK) 3.9 18:54:54 10° WSW 18:56:33 16° SSW 18:58:11 12° S
In-Cosmos 22 Rocket 4.4 18:51:08 10° NNW 18:56:58 80° W 19:02:48 10° S
ATLAS 5 CENTAUR R/B 2.1 18:53:13 10° WSW 18:57:15 59° NW 19:01:52 10° NE
Cosmos 2237 Rocket 3.5 18:52:34 10° NNW 18:57:21 27° NE 19:01:02 15° E
Cosmos 2098 Rocket 4.3 18:50:54 10° N 18:57:33 80° E 19:04:57 10° SSE
Cosmos 405 3.2 18:55:07 12° S 18:58:12 46° E 19:01:33 10° NNE
USA 186 4.2 18:56:14 10° SSW 18:58:56 23° W 19:01:36 10° NW
Cosmos 2195 Rocket 4.5 18:53:46 10° N 19:00:04 75° E 19:06:23 10° SSE
IGS 5A 3.5 19:01:06 19° SSE 19:03:58 61° ENE 19:08:05 10° N
ATLAS 5 CENTAUR R/B 1.5 19:02:16 10° WNW 19:04:03 34° SW 19:04:42 26° S
Cosmos 1726 Rocket 3.5 19:00:43 10° S 19:05:07 88° W 19:09:31 10° N
BREEZE-M DEB (TANK) 1.4 19:04:25 10° W 19:06:56 79° S 19:07:39 38° ESE
USA 245 4.1 19:05:22 23° SE 19:07:33 38° ENE 19:11:02 10° N
Cosmos 389 Rocket 4.3 19:08:19 16° ENE 19:08:19 16° ENE 19:10:04 10° NE
Cosmos 1092 Rocket 4.0 19:03:57 10° N 19:10:17 88° WSW 19:16:31 10° S
Landsat 7 3.8 19:07:10 19° SSE 19:10:32 66° ENE 19:15:17 10° N
Cosmos 2333 Rocket 2.2 19:05:00 10° NNW 19:10:49 87° ENE 19:14:55 20° SSE
CZ-2C R/B 4.1 19:06:47 10° NNE 19:11:01 40° E 19:13:33 21° SSE
Cosmos 1269 Rocket 4.1 19:08:01 10° SSW 19:13:20 81° WNW 19:18:41 10° NNE
NOSS 3-4 (A) 3.3 19:09:01 10° SW 19:14:50 80° SE 19:21:11 10° NE
NOSS 3-4 (C) 3.3 19:09:05 10° SW 19:14:56 79° SE 19:21:18 10° NE
Cosmos 2344 3.7 19:09:37 10° S 19:16:40 46° ESE 19:24:02 10° NE
SL-27 R/B 4.1 19:13:45 10° SW 19:17:02 36° WNW 19:20:18 10° N
Cosmos 2322 Rocket 4.1 19:12:44 10° NW 19:17:23 26° WSW 19:22:02 10° SSW
Cosmos 2058 Rocket 2.9 19:16:00 10° S 19:20:22 83° E 19:24:46 10° NNE
Resurs 01 Rocket 1.7 19:16:54 16° S 19:20:23 77° WSW 19:24:53 10° NNW
Ariane Rocket 4.1 19:17:53 10° S 19:22:42 43° W 19:27:32 10° NNW
Cosmos 1892 3.8 19:19:33 10° NNW 19:23:08 42° W 19:26:41 10° SSW
Meteor 2-19 Rocket 4.5 19:17:25 10° NNW 19:23:36 84° W 19:29:04 14° S
Cosmos 2297 Rocket 3.9 19:25:39 14° E 19:25:39 14° E 19:27:32 10° ENE
Cosmos 2322 3.9 19:20:12 10° NNW 19:25:51 72° WSW 19:29:39 21° SSE
SL-8 R/B 3.7 19:22:13 10° W 19:27:02 70° S 19:29:17 31° ESE
ATLAS 2AS CENTAUR R/B 2.9 19:20:48 10° SSW 19:28:39 70° SE 19:36:22 10° NE
Meteor 2-3 Rocket 4.5 19:29:40 10° N 19:35:03 37° ENE 19:37:10 28° ESE
Cosmos-2242 4.4 19:38:01 22° ENE 19:38:01 22° ENE 19:40:58 10° NE
IRIDIUM 104 4.3 19:35:14 27° SSE 19:37:59 62° E 19:43:09 10° N
Cosmos 1818 4.1 19:37:05 32° SE 19:38:12 35° ESE 19:43:08 10° NE
MetOp-B 4.2 19:35:04 22° S 19:38:38 79° WSW 19:44:02 10° NNW
Meteor 2-10 Rocket 4.2 19:34:47 10° SSW 19:39:52 56° WNW 19:45:12 10° N
OBJECT-B 3.9 19:41:20 10° WSW 19:42:25 11° W 19:43:30 10° WNW
USA-17 4.2 19:38:58 10° SW 19:42:40 72° SE 19:45:46 10° NE
Cosmos 1812 Rocket 3.9 19:42:15 40° ESE 19:42:54 43° E 19:47:08 10° NNE
SPOT 5 3.1 19:45:41 39° ESE 19:46:47 49° ENE 19:51:16 10° N
IRIDIUM 114 4.2 19:44:22 28° S 19:47:08 74° E 19:52:21 10° N
Cosmos 1825 3.0 19:43:39 10° NNW 19:47:18 48° W 19:49:06 26° SSW
Cosmos 909 Rocket 4.1 19:42:07 10° SSW 19:48:14 52° ESE 19:54:26 10° NE
SL-16 R/B 3.7 19:43:31 10° NNW 19:48:16 26° NE 19:50:54 19° E
Cosmos 1992 Rocket 4.4 19:44:22 10° NNW 19:49:28 57° WSW 19:52:16 26° S
COSMOS 2428 2.9 19:44:43 10° NNW 19:50:27 68° WSW 19:53:17 30° S
Meteor 2-21 4.4 19:44:30 10° N 19:50:32 66° ENE 19:53:08 35° SSE
Cosmos 2279 Rocket 3.9 19:46:48 20° S 19:51:16 77° E 19:57:29 10° NNE
Cosmos 1633 2.9 19:47:47 10° N 19:51:14 47° ENE 19:51:14 47° ENE
Cosmos 1980 3.9 19:46:22 10° NNW 19:52:00 59° NE 19:54:06 37° ESE
NOSS 0 Rocket 3.9 19:49:25 10° NNW 19:55:40 84° ENE 19:58:20 37° SE
OPS 8737 4.2 19:53:00 10° NW 19:56:03 89° W 19:56:08 85° SE
IRIDIUM 103 4.2 19:53:29 29° S 19:56:16 87° E 20:01:31 10° N
Lacrosse 5 rocket 2.5 19:52:58 10° W 19:56:56 44° NNW 20:01:09 10° NE
CZ-4C R/B 3.3 19:52:54 10° WSW 19:57:56 46° NNW 20:04:04 10° NE
CARTOSAT-1 3.4 19:58:11 52° SSE 19:59:11 84° ENE 20:03:32 10° NNW
Cosmos 1076 Rocket 3.6 19:56:33 10° NNW 20:00:56 75° W 20:02:11 45° S
Cosmos 2360 Rocket 4.3 19:56:58 10° NW 20:01:04 21° W 20:05:08 10° SSW
Cosmos 1809 Rocket 4.4 19:57:27 10° N 20:03:34 88° W 20:06:25 34° S
Cosmos 407 Rocket 4.2 20:07:16 35° E 20:07:16 35° E 20:11:22 10° NE
Cosmos 614 Rocket 3.9 20:05:28 44° S 20:06:55 64° ESE 20:12:00 10° NNE
Cosmos 2151 2.8 20:05:25 10° N 20:09:45 76° ENE 20:10:11 68° SE
Cosmos 44 3.4 20:09:27 36° S 20:11:26 64° SE 20:16:46 10° NE
COSMOS 2487 4.1 20:08:37 10° SW 20:11:44 32° WNW 20:14:52 10° N
USA 215 4.1 20:09:26 27° S 20:12:13 38° SW 20:18:15 10° WNW
Cosmos 2266 Rocket 4.0 20:08:38 10° N 20:15:05 76° E 20:17:18 43° SSE
ARIANE 5 R/B 3.0 20:14:35 43° SSW 20:15:46 58° WSW 20:20:09 10° NNW
Terra 1.8 20:15:14 58° ESE 20:15:55 66° ENE 20:20:39 10° N
ERS-1 Rocket 2.9 20:15:27 52° SSE 20:16:44 87° WSW 20:21:47 10° NNW
ATLAS 3B R/B 3.0 20:11:02 10° NW 20:17:56 62° SW 20:20:51 37° S
Cosmos 2219 Rocket 3.4 20:15:51 10° NW 20:20:58 35° WSW 20:23:33 24° SSW
Cosmos 1655 Rocket 4.0 20:16:18 10° N 20:22:39 84° W 20:25:01 41° S
Cosmos 405 Rocket 4.1 20:24:15 10° NNW 20:27:55 34° W 20:28:48 30° WSW
Orbus 7S? 3.9 20:26:07 10° WSW 20:29:25 72° NNW 20:36:35 10° ENE
RESURS DK-1 2.7 20:30:11 45° WSW 20:31:15 64° WNW 20:35:23 10° NNE
Spot 2 Rocket 4.3 20:31:08 32° SW 20:32:56 44° W 20:37:49 10° NNW
BREEZE M DEB (TANK) 3.4 20:30:58 10° WSW 20:35:26 37° WSW 20:35:26 37° WSW
Cosmos 2251 Rocket 4.1 20:32:42 14° SW 20:37:21 58° WNW 20:42:39 10° NNE
Meteor 2-8 Rocket 4.5 20:36:55 53° ESE 20:37:42 57° E 20:43:43 10° NNE
Cosmos 2237 Rocket 2.2 20:36:19 10° NNW 20:41:57 70° WSW 20:42:52 59° SSW
Cosmos 389 Rocket 3.8 20:42:04 36° WNW 20:42:04 36° WNW 20:45:23 10° N
Cosmos 1140 Rocket 3.5 20:42:51 59° E 20:42:51 59° E 20:47:26 10° NNE
ATLAS 5 CENTAUR R/B 4.2 20:39:30 10° WNW 20:42:53 21° NNW 20:46:38 10° NNE
Cosmos 2333 Rocket 4.3 20:50:37 10° WNW 20:54:18 18° W 20:56:57 13° SW
Cosmos 1190 Rocket 4.0 20:56:30 66° ENE 20:56:30 66° ENE 21:01:15 10° NNE
SeaSat 1 3.0 20:54:18 10° NE 20:57:59 46° ENE 20:57:59 46° ENE
Cosmos 2227 Rocket 2.4 21:00:01 56° E 21:00:01 56° E 21:04:58 10° NE
Cosmos 1408 Rocket 4.3 20:57:10 10° N 21:00:30 47° NNE 21:00:30 47° NNE
Cosmos 2219 3.1 21:03:54 73° E 21:03:54 73° E 21:09:20 10° NNE
COSMOS 2455 4.1 21:05:56 26° ENE 21:05:56 26° ENE 21:09:10 10° NE
Cosmos 2297 Rocket 2.0 21:07:22 82° SSE 21:07:33 85° ESE 21:13:16 10° NNE
Okean 3 Rocket 4.2 21:09:18 10° NNW 21:13:19 54° WNW 21:13:19 54° WNW
Cosmos-2242 4.0 21:14:50 41° WNW 21:14:52 41° WNW 21:19:01 10° N
Meteor 2-15 Rocket 4.4 21:15:51 64° E 21:15:52 64° E 21:21:52 10° NNE
Meteor 2-2 Rocket 4.4 21:19:49 59° ENE 21:19:49 59° ENE 21:25:06 10° NNE
ATLAS 2AS CENTAUR R/B 4.0 21:12:36 10° WSW 21:20:09 46° NNW 21:27:29 10° NE
Meteor 1-27 4.5 21:20:21 56° WSW 21:21:17 65° WNW 21:27:04 10° N
Cosmos 1818 4.2 21:17:27 17° WSW 21:21:37 53° NW 21:27:00 10° NE
Cosmos 1763 Rocket 3.7 21:17:21 10° NNW 21:22:00 62° NNE 21:22:00 62° NNE
ALOS 2 3.8 21:26:49 35° NE 21:26:49 35° NE 21:29:58 10° N
Cosmos 2344 4.3 21:23:43 10° WSW 21:30:57 53° NNW 21:39:14 10° NE
SL-16 R/B 2.2 21:27:18 10° NNW 21:32:47 75° W 21:32:47 75° W
Cosmos 1500 Rocket 4.5 21:30:21 10° N 21:33:37 46° N 21:33:37 46° N
Lacrosse 5 rocket 3.1 21:32:59 10° WNW 21:36:52 32° N 21:38:18 26° NE
USA 281 4.1 21:36:04 33° E 21:38:04 40° NE 21:44:08 10° NNW
Cosmos 2221 3.8 21:41:08 38° N 21:41:08 38° N 21:43:50 10° N
SL-08 ROCKET BODY 4.3 21:34:19 10° N 21:40:30 89° W 21:40:35 87° SSW
NOSS 3-1 (C) 4.0 21:40:47 10° NW 21:48:03 75° NE 21:50:15 52° ESE
Timation 2 Rocket 4.2 21:47:57 52° WSW 21:49:28 69° WNW 21:55:49 10° NNE
Cosmos 540 Rocket 3.9 21:48:35 10° NNW 21:52:58 58° NNE 21:52:58 58° NNE
Terra 3.9 21:54:06 18° W 21:54:08 18° W 21:57:22 10° NW
Cosmos 1745 Rocket 3.9 21:53:22 10° N 21:59:46 90° W 21:59:50 88° S
Cosmos 1954 Rocket 4.5 22:02:02 56° NW 22:02:02 56° NW 22:06:51 10° NNE
Cosmos 1709 Rocket 4.1 21:59:54 10° N 22:06:08 63° ENE 22:06:08 63° ENE
Cosmos 1943 3.5 22:00:58 10° NNW 22:06:25 57° NE 22:06:25 57° NE
S3M 3.9 22:12:07 88° E 22:12:07 88° E 22:18:33 10° N
Cosmos 2237 Rocket 4.5 22:22:55 10° WNW 22:24:42 12° W 22:24:42 12° W
Meteor 2-17 Rocket 4.4 22:22:04 10° N 22:27:58 82° NNE 22:27:58 82° NNE
SeaSat 1 4.1 22:32:14 10° NNE 22:36:27 29° NW 22:37:46 25° WNW
Cosmos 2082 4.2 22:37:38 52° WNW 22:37:48 52° NW 22:43:19 10° NNE
Meteor 1-25 Rocket 4.4 22:34:07 10° NNW 22:39:08 69° NNW 22:39:08 69° NNW
Cosmos 2227 Rocket 3.7 22:41:47 24° W 22:43:50 31° NW 22:48:50 10° NNE
Iridium 4 Rocket 4.1 22:45:49 50° N 22:45:49 50° N 22:49:35 10° N
Cosmos 1603 4.0 22:40:53 10° NNW 22:45:37 60° NW 22:45:37 60° NW
Cosmos 2263 Rocket 2.6 22:49:57 57° NE 22:49:57 57° NE 22:54:27 10° NNE
COSMOS 2455 3.2 22:49:02 56° WNW 22:49:33 58° NW 22:55:31 10° NNE
Cosmos 2297 Rocket 4.1 22:49:06 15° W 22:52:20 24° NW 22:56:53 10° NNE
USA 229 DEB 3.7 22:45:36 10° NW 22:52:53 78° SW 22:53:15 76° SSW
USA 229 3.7 22:45:42 10° NW 22:52:59 79° SW 22:53:22 77° SSW
Meteor 1-26 Rocket 4.4 22:55:58 71° ENE 22:55:58 71° ENE 23:01:26 10° NNE
Aureole 1 Rocket 4.0 22:57:33 61° NW 22:57:33 61° NW 23:02:17 10° NNE
Cosmos 2315 Rocket 4.0 23:04:50 73° WNW 23:04:50 73° WNW 23:11:11 10° N
Cosmos 1844 Rocket 4.2 23:05:58 24° E 23:05:58 24° E 23:09:31 10° NE
Helios 1A 4.4 23:09:24 36° NNE 23:09:24 36° NNE 23:12:09 10° N
Cosmos 2184 Rocket 4.0 23:03:41 10° N 23:10:04 72° ENE 23:10:18 71° E
NOSS 3-1 (A) 3.9 23:03:13 10° NW 23:10:37 71° SW 23:11:16 68° SSW
Cosmos 44 Rocket 4.1 23:14:26 51° NNW 23:14:26 51° NNW 23:19:16 10° NE
SL-16 R/B 4.5 23:13:30 10° WNW 23:14:39 12° W 23:14:39 12° W
Lacrosse 5 rocket 3.6 23:12:23 10° NW 23:13:54 21° NW 23:13:54 21° NW
USA 281 3.4 23:22:55 53° W 23:22:55 53° W 23:28:53 10° NNW
Thor Agena Rocket 4.3 23:20:29 10° N 23:24:51 44° NW 23:24:51 44° NW
Cosmos 2227 4.4 23:27:49 66° NW 23:27:49 66° NW 23:33:27 10° NNE
CZ-4C R/B 4.4 23:32:57 10° NW 23:38:38 31° NNE 23:45:17 10° E
Cosmos 2074 Rocket 4.0 23:39:34 10° NNW 23:45:41 65° W 23:45:41 65° W
NOSS 2-2 (C) 4.4 23:42:12 10° NW 23:47:19 73° NE 23:49:53 38° ESE
NOSS 2-2 (E) 4.3 23:45:20 10° NW 23:50:37 86° NE 23:51:48 62° SE
Cosmos 1844 4.3 23:50:48 45° ESE 23:50:48 45° ESE 23:56:11 10° NE
Cosmos 1295 Rocket 4.3 23:47:20 10° N 23:53:35 86° E 23:54:09 75° SSE
